Nantucket, MA

8:03 PM EDT on May 22, 2018 (GMT -0400)
Nantucket Memorial

Weather History for KACK - September, 2013

Change the Weather History Date:

Monday, September 9, 2013

  Actual Average Record
Temperature  
Mean Temperature 58 °F -  
Max Temperature 66 °F 70 °F 86 °F (1971)
Min Temperature 51 °F 55 °F 33 °F (1996)
Degree Days  
Heating Degree Days 8    
Growing Degree Days 8 (Base 50)    
Moisture  
Dew Point 43 °F    
Average Humidity 55    
Maximum Humidity 71    
Minimum Humidity 40    
Precipitation  
Precipitation 0.00 in - - ()
Sea Level Pressure  
Sea Level Pressure 30.19 in    
Wind  
Wind Speed 9 mph (SE)    
Max Wind Speed 12 mph    
Max Gust Speed -    
Visibility 10 miles    
Events      
Averages and records for this station are not official NWS values.
T = Trace of Precipitation, MM = Missing Value Source: NWS Daily Summary

Daily Weather History Graph

Daily Weather History Graph

Search for Another Location

Airport or City:

Astronomy

Sep. 09, 2013 Rise Set
Actual Time 6:14 AM EDT 6:59 PM EDT
Civil Twilight 5:46 AM EDT 7:27 PM EDT
Nautical Twilight 5:13 AM EDT 8:00 PM EDT
Astronomical Twilight 4:39 AM EDT 8:34 PM EDT
Moon 10:36 AM EDT (9/9) 9:10 PM EDT (9/9)
Length of Visible Light 13h 40m
Length of Day
12h 44m
Waxing Crescent, 19% of the Moon is Illuminated
Sep 9
Waxing Crescent
Sep 12
First Quarter
Sep 19
Full
Sep 26
Last Quarter
Oct 4
New

Hourly Weather History & Observations

Time (EDT) Temp. Dew Point Humidity Pressure Visibility Wind Dir Wind Speed Gust Speed Precip Events Conditions
12:53 AM 57.9 °F 42.1 °F 56% 30.09 in 10.0 mi NNE 10.4 mph - N/A   Scattered Clouds
1:53 AM 55.0 °F 39.9 °F 57% 30.09 in 10.0 mi NNE 9.2 mph - N/A   Clear
2:53 AM 54.0 °F 41.0 °F 62% 30.10 in 10.0 mi NE 8.1 mph - N/A   Clear
3:53 AM 51.1 °F 42.1 °F 71% 30.12 in 10.0 mi NNE 9.2 mph - N/A   Clear
4:53 AM 53.1 °F 41.0 °F 64% 30.14 in 10.0 mi NNE 8.1 mph - N/A   Clear
5:53 AM 51.1 °F 39.9 °F 66% 30.16 in 10.0 mi NE 6.9 mph - N/A   Clear
6:53 AM 53.1 °F 41.0 °F 64% 30.19 in 10.0 mi NE 4.6 mph - N/A   Clear
7:53 AM 60.1 °F 44.1 °F 55% 30.21 in 10.0 mi NE 6.9 mph - N/A   Clear
8:53 AM 62.1 °F 39.0 °F 43% 30.22 in 10.0 mi NE 6.9 mph - N/A   Clear
9:53 AM 64.0 °F 39.0 °F 40% 30.24 in 10.0 mi Variable 4.6 mph - N/A   Clear
10:53 AM 64.0 °F 39.9 °F 41% 30.24 in 10.0 mi ENE 6.9 mph - N/A   Clear
11:53 AM 64.9 °F 42.1 °F 43% 30.23 in 10.0 mi SE 11.5 mph - N/A   Clear
12:53 PM 64.9 °F 42.1 °F 43% 30.23 in 10.0 mi Variable 5.8 mph - N/A   Clear
1:53 PM 64.0 °F 39.9 °F 41% 30.23 in 10.0 mi South 9.2 mph - N/A   Clear
2:53 PM 64.0 °F 42.1 °F 45% 30.22 in 10.0 mi South 9.2 mph - N/A   Clear
3:53 PM 64.0 °F 44.1 °F 48% 30.23 in 10.0 mi SW 10.4 mph - N/A   Clear
4:53 PM 62.1 °F 44.1 °F 52% 30.23 in 10.0 mi SSW 9.2 mph - N/A   Clear
5:53 PM 61.0 °F 46.0 °F 58% 30.22 in 10.0 mi SW 9.2 mph - N/A   Clear
6:53 PM 60.1 °F 46.0 °F 60% 30.21 in 10.0 mi SSW 8.1 mph - N/A   Clear
7:53 PM 59.0 °F 46.9 °F 64% 30.22 in 10.0 mi SSW 8.1 mph - N/A   Clear
8:53 PM 60.1 °F 46.9 °F 62% 30.21 in 10.0 mi SSW 10.4 mph - N/A   Clear
9:53 PM 60.1 °F 48.0 °F 64% 30.21 in 10.0 mi SSW 10.4 mph - N/A   Clear
10:53 PM 61.0 °F 48.0 °F 62% 30.22 in 10.0 mi South 11.5 mph - N/A   Clear
11:53 PM 62.1 °F 48.9 °F 62% 30.21 in 10.0 mi SSW 11.5 mph - N/A   Clear